Theta_e
300 304 305 306 307 308 308 309 313 315 316 319 320 321 322 320 319 318 318 320 323 325 327 324 324 324 324 323 321 320 320 322 323 324 323 322 323 322 321 320 319 318 317
301 302 305 306 306 306 307 308 311 314 316 316 318 319 320 319 319 322 321 322 324 326 326 325 324 324 324 322 321 321 322 321 323 324 322 322 321 322 321 320 318 316 316
298 302 304 305 306 306 307 306 307 312 315 317 318 318 318 319 319 320 320 320 323 323 325 326 325 325 324 322 323 322 321 320 321 322 321 320 320 320 320 318 316 316 317
294 297 299 299 301 305 306 308 307 307 309 316 316 317 316 316 315 316 316 318 321 321 322 324 323 324 323 322 322 322 322 322 321 321 320 319 319 320 320 318 317 318 318
293 294 296 296 295 300 305 307 307 307 306 308 307 309 312 310 311 312 312 313 314 317 317 318 319 320 320 321 321 321 321 321 321 321 321 319 319 318 317 318 318 318 318
291 292 292 294 293 294 298 306 306 307 307 306 306 307 308 308 308 308 310 311 311 311 311 314 314 314 315 315 317 317 317 318 318 318 318 318 317 317 317 315 315 316 317
291 292 291 292 292 293 294 293 299 305 303 304 305 306 305 305 306 303 306 309 309 310 310 310 310 310 310 311 311 311 311 312 312 313 315 316 314 313 314 314 316 316 316
292 291 291 291 291 291 292 292 292 293 294 293 294 298 303 299 300 302 301 307 307 308 309 309 309 309 309 309 309 310 310 310 310 310 310 309 309 308 308 309 308 309 311
291 292 291 291 291 291 291 291 291 291 291 291 292 291 292 292 290 291 292 292 291 296 305 300 301 304 307 309 309 309 310 309 308 308 309 309 310 309 309 308 308 309 310
291 292 291 291 291 291 291 291 291 291 291 290 290 290 289 289 290 291 291 290 289 289 290 290 291 291 292 293 298 303 305 306 306 307 308 308 308 308 308 308 309 309 309
291 292 292 291 290 291 290 290 290 290 289 289 289 288 288 289 289 289 289 290 290 290 290 289 289 289 290 290 289 290 291 291 293 294 296 300 303 305 306 306 307 307 307
292 290 291 291 291 290 290 290 290 289 289 289 289 289 289 288 288 288 288 287 287 288 288 288 288 288 288 288 288 288 288 289 288 289 289 289 290 291 292 293 297 302 304
291 289 289 289 290 290 290 290 289 289 289 288 288 289 289 289 289 288 287 286 286 286 286 287 287 288 288 288 287 287 287 287 287 287 287 287 287 288 288 289 290 290 291
291 289 288 288 289 289 289 289 289 288 287 287 287 287 287 286 286 286 286 287 286 286 286 286 286 286 286 286 286 286 287 287 286 286 286 286 286 286 286 287 287 287 288
290 289 288 287 288 288 288 287 287 287 286 286 286 286 286 285 285 285 285 285 285 285 285 285 284 284 283 283 284 284 285 285 285 285 285 285 285 285 285 285 286 288 288
290 289 288 287 288 287 287 286 286 286 285 285 285 285 285 285 284 284 284 284 284 283 283 283 283 283 284 284 283 283 284 284 284 284 284 284 284 284 284 284 284 284 286
290 289 288 290 288 286 285 285 285 285 285 285 285 284 284 283 283 283 283 283 283 283 282 282 282 282 282 282 282 282 282 283 283 283 283 283 284 284 284 284 284 285 286
289 288 288 287 286 286 285 285 285 285 285 284 284 283 283 283 283 283 282 282 282 282 282 282 281 281 281 281 281 281 282 282 282 282 282 282 283 283 283 284 285 286 286
287 287 287 286 285 285 285 284 284 284 283 283 282 282 282 282 282 282 282 281 281 281 281 281 281 282 282 281 281 280 281 282 282 281 282 282 282 283 283 284 285 285 285
287 286 285 285 284 284 285 284 283 282 282 282 282 282 281 281 281 281 281 281 281 281 281 281 280 280 281 281 280 280 281 281 281 281 282 282 282 282 282 283 284 284 285
286 284 285 285 286 285 284 282 282 282 282 281 281 281 280 280 280 280 279 279 279 280 280 280 280 280 280 280 279 279 280 281 281 281 281 282 282 282 282 283 284 284 285
285 285 285 285 284 282 281 281 281 281 281 281 280 279 279 279 279 279 279 279 279 278 278 278 279 278 278 278 278 278 279 280 280 280 281 281 281 282 282 283 283 284 283
284 284 283 282 281 281 281 280 280 280 280 279 279 279 279 278 278 278 278 277 277 277 277 276 276 277 277 277 278 278 279 279 279 279 280 280 280 281 281 282 282 282 282
283 283 282 281 280 280 280 279 279 279 279 278 278 278 278 278 277 277 276 276 276 275 275 275 276 276 277 277 278 278 279 279 279 279 279 280 281 281 281 281 281 281 281
282 282 280 280 279 279 278 278 278 278 278 278 277 277 276 276 276 275 275 274 274 274 274 275 276 276 277 277 278 278 278 279 279 279 278 279 279 279 279 280 280 280 280
280 279 279 279 278 278 278 277 277 277 276 276 276 276 275 275 274 273 274 274 274 274 274 275 276 276 276 277 277 278 278 278 278 278 278 278 278 278 278 278 278 278 278
Wind_Speed
12 18 23 26 21 23 24 17 10 10 10 7 7 8 11 17 18 20 21 24 27 28 35 30 29 29 31 30 28 25 23 27 27 27 26 26 27 27 25 24 23 22 20
10 14 19 25 28 27 32 22 10 8 9 11 7 9 10 11 13 14 16 22 21 30 32 36 31 31 33 33 28 26 26 28 30 30 23 17 24 29 29 29 26 24 24
11 13 16 20 25 28 31 32 17 10 2 9 11 10 11 11 11 11 13 18 23 25 30 32 33 35 38 31 27 26 26 26 29 33 21 13 15 19 26 34 32 30 30
9 12 14 19 22 26 27 23 31 30 18 11 15 16 16 11 10 10 10 10 15 18 21 31 29 37 35 29 23 22 23 24 28 30 34 25 12 14 13 28 36 35 34
7 10 14 17 19 20 24 28 24 23 30 29 22 22 25 25 23 22 22 23 20 19 16 15 19 20 20 22 20 19 17 18 19 24 31 35 35 24 18 14 22 35 38
4 7 9 12 17 19 20 18 22 24 19 21 24 26 19 19 15 15 16 14 17 17 20 15 11 10 8 9 14 15 14 16 16 12 15 17 26 26 23 15 13 13 24
1 4 6 10 13 16 17 21 21 19 19 18 22 19 22 22 19 17 20 15 14 12 13 8 3 0 1 2 2 1 3 4 7 10 12 14 11 11 9 9 14 18 20
4 3 4 7 10 12 15 16 18 18 17 20 22 19 18 21 19 22 20 16 14 11 10 9 9 6 4 4 7 12 13 12 12 10 13 11 12 15 14 15 16 22 23
7 5 4 4 6 8 11 13 14 16 17 19 18 18 16 15 16 16 16 15 17 15 7 10 9 6 5 5 7 9 12 15 16 17 18 10 11 13 14 17 19 23 22
11 8 6 3 4 5 7 8 10 13 14 15 16 16 16 15 15 15 14 15 15 13 12 10 10 10 8 7 6 7 9 12 14 16 19 22 24 24 24 22 21 21 24
15 13 9 6 4 3 4 6 7 9 11 13 14 14 15 15 16 15 14 13 13 14 13 13 11 11 11 10 10 9 9 9 10 11 13 15 18 20 21 23 26 25 25
16 14 12 10 7 5 3 2 5 6 8 9 10 11 13 14 14 14 15 13 12 11 10 11 11 13 13 13 12 12 13 13 14 14 15 15 16 17 19 20 21 23 25
18 16 14 12 10 7 5 2 1 3 6 8 10 11 12 13 14 16 17 17 16 14 12 11 13 12 12 13 13 14 14 14 15 16 16 17 18 18 19 20 21 22 23
21 18 16 14 12 9 6 2 1 2 4 6 8 11 11 12 11 10 11 13 15 17 18 17 16 14 13 13 14 14 14 14 15 16 16 17 18 19 19 20 20 21 22
22 20 17 14 12 9 6 3 3 3 5 7 7 8 9 10 11 12 13 12 11 11 12 14 15 17 16 16 16 17 18 18 18 18 18 19 19 20 20 20 19 19 20
22 20 18 16 13 10 7 5 4 4 6 7 9 10 11 12 13 13 13 14 15 14 13 12 12 12 12 14 16 18 18 19 20 21 21 21 21 20 20 21 23 23 21
21 21 20 18 11 10 7 4 5 6 8 10 11 13 14 16 17 18 18 19 20 21 21 21 19 17 15 14 14 15 16 17 18 19 21 21 20 24 23 23 22 20 19
18 18 16 14 13 8 5 5 6 7 10 11 12 13 15 16 17 18 19 20 20 21 22 23 23 24 24 24 23 22 17 16 16 17 19 20 22 22 22 20 21 20 20
13 15 15 12 9 6 4 6 8 10 11 12 14 16 17 18 18 19 20 20 21 22 23 24 25 25 25 25 25 23 17 15 17 18 17 18 19 19 18 20 22 24 24
14 13 11 7 5 6 6 6 9 11 12 14 16 17 18 18 20 21 22 22 23 24 25 26 26 25 25 25 24 23 18 17 18 17 17 18 19 19 19 20 22 25 24
12 11 10 9 7 6 6 9 11 12 14 17 18 19 20 21 21 22 23 24 24 25 26 27 27 26 24 23 22 21 16 17 21 20 19 18 19 21 22 21 25 29 27
9 6 5 4 4 6 9 11 12 15 17 19 20 20 21 22 23 24 25 25 25 25 26 27 26 22 21 20 19 18 16 19 21 22 21 22 23 26 27 26 25 25 27
6 3 2 3 6 9 12 13 15 17 19 20 22 23 23 23 24 23 23 23 22 22 22 22 22 20 18 18 17 19 17 19 21 22 23 26 27 25 24 23 23 29 25
2 2 4 7 9 12 14 15 17 19 21 23 24 24 25 25 23 23 21 20 20 19 18 18 19 21 19 19 19 17 20 22 24 25 29 27 27 25 24 23 23 21 20
2 5 8 10 12 15 16 16 19 21 22 23 24 24 23 22 22 19 18 18 17 17 21 22 22 23 24 21 21 23 24 24 26 29 30 27 21 25 25 24 22 20 20
6 8 10 12 14 16 17 18 20 20 21 21 20 20 20 18 16 17 19 19 19 19 19 20 21 22 22 24 24 24 24 26 27 28 25 24 25 25 23 21 21 21 22
Wind_Direction
1 15 22 22 19 18 13 356 331 302 268 240 217 231 234 235 242 246 249 247 251 248 223 223 224 222 220 211 208 213 219 220 220 219 222 227 231 228 228 229 235 237 242
6 15 26 24 23 27 28 17 355 327 266 252 228 248 250 249 248 260 262 247 251 246 238 223 224 226 215 210 212 219 226 224 222 219 219 223 231 231 231 234 237 241 242
6 19 24 31 30 33 37 34 40 35 197 201 192 216 221 211 212 242 265 265 246 257 248 248 222 224 212 215 221 225 227 228 222 223 213 220 228 226 232 233 233 229 231
19 28 31 34 37 39 47 43 53 54 57 128 168 150 151 156 128 138 147 192 231 240 238 232 211 206 210 205 206 213 223 224 230 228 229 216 216 213 221 231 234 233 231
30 35 41 44 43 47 50 48 51 60 50 56 72 109 122 116 113 109 102 110 116 138 137 154 171 180 169 181 188 197 208 213 227 234 232 233 236 232 222 214 233 232 235
36 46 43 52 54 50 55 56 55 56 57 38 47 53 58 78 90 89 102 87 90 84 89 103 90 106 142 154 167 177 189 201 210 212 222 237 237 239 242 244 222 230 235
108 64 50 55 59 58 57 59 61 62 59 57 58 47 51 40 50 50 68 71 66 75 70 71 71 197 52 32 31 197 220 216 236 230 226 229 239 250 245 262 256 252 251
177 131 79 64 62 63 64 63 64 66 60 62 58 54 36 43 27 23 27 44 52 46 47 17 14 6 336 330 301 280 280 278 284 287 266 258 264 269 264 271 278 278 273
196 181 145 100 77 67 61 62 62 60 57 54 55 52 49 48 50 40 35 31 34 42 31 16 15 1 315 266 241 246 245 249 261 264 260 271 266 268 271 255 254 255 261
204 201 184 165 116 81 65 60 55 52 51 51 51 47 46 44 39 34 25 21 23 27 24 14 2 355 350 353 323 289 273 265 258 255 258 260 261 261 256 258 254 246 255
209 205 203 191 166 121 80 59 57 54 49 44 38 35 35 28 23 26 22 12 4 2 358 357 353 344 345 338 331 319 309 301 293 285 279 273 272 266 259 259 258 255 250
205 205 204 203 189 175 138 62 43 41 39 35 32 25 19 18 17 14 13 16 12 7 359 352 345 343 341 335 327 323 315 309 305 299 297 295 288 285 281 278 276 270 262
198 201 204 204 203 196 181 169 30 13 17 17 14 11 8 2 358 357 357 355 356 357 356 346 343 341 334 325 324 320 314 313 309 304 302 299 297 292 290 289 286 283 278
198 198 201 205 206 206 200 204 290 335 0 5 4 4 1 359 356 352 343 339 339 340 340 340 341 338 333 324 319 313 310 308 306 304 301 299 298 297 293 291 291 289 286
198 198 196 203 207 212 218 228 264 323 347 352 350 347 345 345 343 339 338 338 333 329 327 326 328 329 329 325 321 320 316 313 307 305 304 302 298 294 292 292 289 287 288
200 195 197 197 204 215 228 239 273 311 328 331 334 334 335 336 335 334 333 332 332 332 330 325 321 315 312 308 305 303 303 304 305 306 304 302 300 297 292 290 287 282 284
198 193 196 206 204 212 222 253 294 314 320 323 325 332 336 335 333 332 332 331 331 332 332 331 330 327 323 315 306 298 295 293 292 292 292 294 299 299 300 298 297 291 287
193 186 192 191 200 209 234 269 289 306 311 314 319 321 323 324 325 324 324 324 323 322 323 323 323 323 323 324 323 323 317 307 300 295 294 293 292 295 298 301 295 291 288
180 182 186 191 195 211 250 284 304 306 307 313 321 324 322 319 317 316 316 316 314 315 316 316 315 314 314 315 317 318 314 307 304 304 302 298 294 290 296 294 292 291 289
174 176 177 184 210 235 266 302 301 306 311 310 310 313 315 315 314 313 313 313 312 312 311 310 309 308 308 309 309 309 309 305 305 301 298 295 294 289 290 292 290 289 290
162 168 192 219 248 274 304 302 306 306 307 308 311 314 315 315 313 312 312 312 311 309 308 306 306 307 307 304 303 302 299 301 303 300 297 293 290 292 291 288 286 286 291
182 199 220 245 294 316 307 305 308 307 308 310 311 313 313 313 313 311 311 310 308 307 307 307 308 307 307 306 304 302 292 294 298 296 293 290 294 295 292 288 284 285 290
194 205 252 327 328 307 305 307 309 308 308 310 311 311 311 311 310 308 307 305 304 304 304 305 305 306 306 305 308 305 295 299 299 298 295 296 296 294 292 291 290 294 296
204 327 338 325 308 305 307 312 312 309 310 311 312 312 312 311 308 306 305 303 304 301 301 303 303 304 306 306 306 304 306 303 301 302 303 302 297 291 288 294 296 293 289
334 333 317 311 310 309 313 315 309 309 310 310 311 311 312 311 310 308 304 303 300 296 300 298 297 298 298 299 299 301 301 298 298 302 303 301 294 297 296 295 292 292 294
324 307 311 311 311 312 318 314 312 313 314 314 315 314 314 314 311 310 310 310 307 300 294 292 292 294 293 295 297 296 296 297 298 300 294 295 295 295 293 290 291 292 296